[[{"header":{"parameterUnit":"m.s-1","parameterCategory":2,"la1":30.2991,"la2":30.254,"lo1":-89.0895,"lo2":-89.0444,"dy":0.0017,"dx":0.0017,"nx":28,"ny":28,"refTime":"2025-11-23T03:00:00:Z","depth":"0","parameterNumber":2,"parameterNumberName":"U-component_of_CURRENTS"},"data":[0,0,0,0,0,0,0,0,0,0,0,0,0,0,0,0,0,0,0,0,0,0,0,0,0,0,0,0,0,0,0,0,0,0,0,0,0,0,0,0,0,0,0,0,0,0,0,0,0,0,0,0,0,0,0,0,0,0,-0.1684,-0.1685,0,-0.1717,-0.1717,-0.1717,-0.1681,-0.168,-0.1679,-0.1678,-0.1612,-0.1611,-0.161,0,0,0,0,0,0,0,0,0,0,0,0,0,-0.1556,-0.1559,-0.1684,-0.1685,-0.1686,-0.1717,-0.1717,-0.1717,-0.1681,-0.168,-0.1679,-0.1678,-0.1612,-0.1611,-0.161,0,0,0,0,0,0,0,0,0,0,0,0,0,-0.1599,-0.1559,-0.1684,-0.1675,-0.1674,-0.1717,-0.1717,-0.1717,-0.1681,-0.168,-0.1678,-0.1677,-0.1612,-0.1611,-0.161,-0.1632,0,0,-0.1606,-0.1605,0,0,0,0,0,0,0,0,-0.1597,-0.1603,-0.1675,-0.1675,-0.1675,-0.1697,-0.1647,-0.1685,-0.1682,-0.1675,-0.1678,-0.1676,-0.1635,-0.1631,-0.1637,-0.1629,-0.1626,-0.1606,-0.1605,-0.1605,-0.1604,0,0,0,0,0,0,0,-0.1594,-0.1601,-0.1693,-0.1676,-0.1676,-0.1657,-0.1661,-0.1654,-0.1658,-0.1675,-0.1674,-0.1684,-0.1633,-0.1638,-0.1635,-0.1625,-0.1606,-0.1605,-0.1604,-0.1603,-0.1658,-0.166,0,0,0,0,0,0,-0.1602,-0.1599,-0.1692,-0.1694,-0.1636,-0.1661,-0.1665,-0.1688,-0.166,-0.1656,-0.1685,-0.1682,-0.1641,-0.1636,-0.1632,-0.1689,-0.1605,-0.1603,-0.1603,-0.1656,-0.1658,-0.1661,0,0,0,0,0,0,-0.1599,-0.161,-0.1691,-0.1649,-0.1659,-0.1665,-0.1691,-0.169,-0.1689,-0.1669,-0.1662,-0.1685,-0.164,-0.1634,-0.1632,-0.1685,-0.1603,-0.1602,-0.1653,-0.1656,-0.1659,-0.1782,0,0,0,0,0,0,-0.1595,-0.1609,-0.1618,-0.1651,-0.1662,-0.1725,-0.1692,-0.1691,-0.17,-0.1696,-0.1667,-0.166,-0.1638,-0.1634,-0.163,-0.1681,-0.1601,-0.165,-0.1655,-0.1658,-0.1775,-0.1789,-0.1801,0,0,0,0,0,-0.1591,-0.1617,-0.1619,-0.163,-0.1678,-0.1726,-0.173,-0.1726,-0.1701,-0.1715,-0.1693,-0.1661,-0.1658,-0.1634,-0.163,-0.1682,-0.1648,-0.1653,-0.1658,-0.1769,-0.1786,-0.1801,0,0,0,0,0,0,-0.1549,-0.1618,-0.162,-0.1659,-0.1693,-0.1722,-0.1733,-0.173,-0.1725,-0.1712,-0.1679,-0.1672,-0.1688,-0.1669,-0.1643,-0.1711,-0.1652,-0.1657,-0.1739,-0.1754,-0.1767,-0.176,-0.16,0,0,0,0,0,-0.1552,-0.1591,-0.1645,-0.1669,-0.1696,-0.1713,-0.1726,-0.1731,-0.1738,-0.1733,-0.1713,-0.1701,-0.1709,-0.1715,-0.1704,-0.1742,-0.1706,-0.1776,-0.1789,-0.18,-0.1793,-0.1808,-0.1821,-0.1677,-0.1677,-0.1677,0,0,-0.1534,-0.1579,-0.1595,-0.1663,-0.1686,-0.1728,-0.1716,-0.175,-0.1772,-0.1727,-0.1735,-0.1731,-0.1723,-0.1763,-0.1771,-0.1754,-0.182,-0.1806,-0.1816,-0.1802,-0.1814,-0.1828,-0.184,-0.168,-0.168,-0.1679,0,0,-0.1531,-0.1571,-0.1608,-0.1653,-0.1709,-0.1733,-0.1746,-0.1784,-0.1791,-0.181,-0.1792,-0.1828,-0.1811,-0.185,-0.186,-0.194,-0.1874,-0.1933,-0.2011,-0.2028,-0.2039,-0.2049,-0.2011,-0.2017,-0.1958,-0.1958,-0.1959,0,-0.1506,-0.1567,-0.162,-0.1673,-0.1708,-0.1738,-0.178,-0.1805,-0.1827,-0.1855,-0.1818,-0.1863,-0.1862,-0.1948,-0.198,-0.1972,-0.1936,-0.1955,-0.2044,-0.2053,-0.2061,-0.202,-0.2024,-0.1965,-0.1964,-0.1963,-0.1963,0,-0.1535,-0.1587,-0.1617,-0.1696,-0.174,-0.1785,-0.1842,-0.1876,-0.1881,-0.191,-0.1971,-0.1983,-0.2015,-0.2044,-0.2031,-0.2117,-0.2055,-0.2045,-0.2004,-0.2083,-0.2034,-0.2037,-0.1974,-0.1972,-0.197,-0.1968,0,0,-0.1478,-0.1612,-0.1618,-0.1662,-0.1762,-0.1795,-0.1865,-0.1947,-0.1988,-0.2023,-0.2076,-0.2143,-0.2154,-0.2166,-0.2184,-0.2219,-0.2256,-0.2159,-0.2157,-0.2118,-0.2239,-0.2146,-0.2138,-0.2252,-0.2254,-0.2255,-0.2178,0,-0.1482,-0.157,-0.1645,-0.1715,-0.177,-0.1848,-0.1905,-0.198,-0.2033,-0.2089,-0.2159,-0.2195,-0.2201,-0.2219,-0.2267,-0.2244,-0.2268,-0.2274,-0.2169,-0.2165,-0.2072,-0.2141,-0.2022,-0.194,-0.218,-0.218,-0.218,0,-0.149,-0.1554,-0.1626,-0.1743,-0.1773,-0.1811,-0.1922,-0.1978,-0.2096,-0.2138,-0.2226,-0.2252,-0.2334,-0.2303,-0.2332,-0.2324,-0.2288,-0.227,-0.2267,-0.2135,-0.2078,-0.1902,-0.1934,-0.1926,-0.2183,-0.2183,-0.2182,0,-0.1417,-0.1542,-0.1592,-0.1632,-0.1764,-0.1805,-0.1861,-0.1985,-0.2031,-0.216,-0.2196,-0.2301,-0.2315,-0.2325,-0.2304,-0.2307,-0.2288,-0.2289,-0.2175,-0.2165,-0.202,-0.1996,-0.2028,-0.2299,-0.2299,-0.23,-0.23,0,-0.1405,-0.1443,-0.1555,-0.1582,-0.163,-0.1742,-0.1798,-0.1891,-0.1999,-0.2043,-0.2194,-0.2237,-0.2315,-0.2324,-0.2305,-0.2233,-0.2289,-0.2183,-0.2153,-0.2057,-0.2038,-0.1986,-0.2016,-0.2297,-0.2297,-0.2298,-0.2298,0,-0.1318,-0.14,-0.1458,-0.1573,-0.1598,-0.1619,-0.1716,-0.1756,-0.189,-0.1947,-0.1979,-0.2158,-0.2179,-0.2227,-0.2228,-0.2205,-0.2122,-0.2123,-0.1981,-0.1936,-0.182,-0.186,-0.1845,-0.1791,-0.1985,-0.1983,-0.198,0,-0.1284,-0.1306,-0.1398,-0.1406,-0.1449,-0.1496,-0.152,-0.1663,-0.1693,-0.1881,-0.1879,-0.1985,-0.2025,-0.2024,-0.2001,-0.1948,-0.1997,-0.1824,-0.1836,-0.18,-0.1823,-0.1872,-0.1832,-0.1682,-0.1677,-0.1674,-0.1671,0,-0.1201,-0.1226,-0.1261,-0.1278,-0.1295,-0.1325,-0.1363,-0.1374,-0.1527,-0.1591,-0.1682,-0.1751,-0.1806,-0.176,-0.1739,-0.17,-0.178,-0.1746,-0.1764,-0.1636,-0.1635,-0.1571,-0.172,-0.1639,-0.1642,-0.1644,-0.1646,-0.1647,-0.1106,-0.1099,-0.113,-0.1139,-0.1153,-0.1146,-0.1115,-0.1152,-0.1178,-0.1237,-0.1421,-0.1484,-0.1579,-0.1545,-0.1504,-0.1419,-0.1512,-0.14,-0.1459,-0.1518,-0.1456,-0.151,-0.1369,-0.1371,-0.1372,-0.1373,-0.1375,0,-0.0997,-0.0996,-0.099,-0.0995,-0.0958,-0.1014,-0.1,-0.0947,-0.09,-0.0965,-0.1031,-0.1209,-0.1196,-0.1267,-0.1229,-0.1172,-0.1162,-0.1172,-0.123,-0.1209,-0.1282,-0.1258,-0.1019,-0.1019,-0.1019,-0.1019,-0.1019,-0.1019,-0.0934,-0.0895,-0.0903,-0.0811,-0.08,-0.0714,-0.0681,-0.0604,-0.0594,-0.059,-0.0681,-0.0804,-0.1023,-0.1235,-0.1177,-0.1109,-0.112,-0.107,-0.1137,-0.1209,-0.1236,-0.1262,-0.1247,-0.101,-0.1011,-0.0989,-0.0989,-0.0989]},{"header":{"parameterUnit":"m.s-1","parameterCategory":2,"la1":30.2991,"la2":30.254,"lo1":-89.0895,"lo2":-89.0444,"dy":0.0017,"dx":0.0017,"nx":28,"ny":28,"refTime":"2025-11-23T03:00:00:Z","depth":"0","parameterNumber":3,"parameterNumberName":"V-component_of_CURRENTS"},"data":[0,0,0,0,0,0,0,0,0,0,0,0,0,0,0,0,0,0,0,0,0,0,0,0,0,0,0,0,0,0,0,0,0,0,0,0,0,0,0,0,0,0,0,0,0,0,0,0,0,0,0,0,0,0,0,0,0,0,0.0338,0.0339,0,0.046,0.0462,0.0464,0.0547,0.0548,0.0548,0.0548,0.0714,0.0718,0.0722,0,0,0,0,0,0,0,0,0,0,0,0,0,0.0268,0.0269,0.0338,0.0339,0.034,0.046,0.0462,0.0464,0.0547,0.0548,0.0548,0.0548,0.0712,0.0717,0.0722,0,0,0,0,0,0,0,0,0,0,0,0,0,0.0339,0.0269,0.0338,0.0393,0.0399,0.046,0.0462,0.0465,0.0547,0.0548,0.0548,0.0548,0.0711,0.0717,0.0723,0.0755,0,0,0.0742,0.0745,0,0,0,0,0,0,0,0,0.0335,0.0342,0.0384,0.039,0.0396,0.0485,0.0498,0.0563,0.0547,0.0495,0.0548,0.0549,0.0639,0.0651,0.0678,0.0763,0.077,0.0743,0.0747,0.0749,0.0751,0,0,0,0,0,0,0,0.033,0.0338,0.0391,0.0385,0.0393,0.0443,0.0453,0.0511,0.0567,0.05,0.0505,0.0512,0.0643,0.0672,0.0683,0.0772,0.0743,0.0748,0.0752,0.0755,0.0864,0.0863,0,0,0,0,0,0,0.0301,0.0332,0.0387,0.0394,0.0361,0.0443,0.0455,0.046,0.0566,0.0581,0.0512,0.0516,0.0661,0.0675,0.0689,0.0704,0.0749,0.0755,0.0759,0.0865,0.0864,0.0863,0,0,0,0,0,0,0.0299,0.0305,0.0382,0.0363,0.0376,0.0443,0.0449,0.0462,0.0485,0.0574,0.0591,0.0519,0.0662,0.068,0.0735,0.0712,0.0758,0.0764,0.0866,0.0865,0.0864,0.0753,0,0,0,0,0,0,0.0297,0.0303,0.0298,0.0361,0.0376,0.0397,0.0448,0.0464,0.0487,0.0493,0.0586,0.0602,0.0664,0.0725,0.0741,0.0722,0.0769,0.0867,0.0866,0.0864,0.0758,0.0748,0.074,0,0,0,0,0,0.0294,0.0278,0.0297,0.0304,0.0366,0.0395,0.0407,0.046,0.0486,0.0485,0.0556,0.0599,0.0725,0.073,0.0749,0.0731,0.0868,0.0866,0.0864,0.0762,0.075,0.074,0,0,0,0,0,0,0.024,0.0287,0.0309,0.0307,0.0339,0.0407,0.0412,0.0448,0.0504,0.0513,0.0601,0.0622,0.0657,0.071,0.0712,0.0756,0.0799,0.08,0.0714,0.0704,0.0695,0.0683,0.0774,0,0,0,0,0,0.0224,0.0228,0.0277,0.0273,0.0285,0.0347,0.0366,0.0399,0.0455,0.048,0.0547,0.0613,0.0665,0.0696,0.0752,0.0783,0.0818,0.078,0.0771,0.0763,0.0765,0.0782,0.0774,0.0857,0.0857,0.0857,0,0,0.02,0.0227,0.0228,0.0262,0.0295,0.0297,0.036,0.0376,0.0385,0.0489,0.0525,0.0587,0.0667,0.07,0.0719,0.0741,0.0756,0.076,0.0753,0.076,0.0779,0.0771,0.0764,0.0855,0.0856,0.0856,0,0,0.015,0.0177,0.0164,0.0182,0.0217,0.0254,0.025,0.0311,0.0345,0.0387,0.0458,0.0509,0.0593,0.0645,0.0682,0.0658,0.0707,0.0663,0.0613,0.0628,0.0622,0.0616,0.0641,0.0638,0.066,0.0659,0.0659,0,0.0117,0.0109,0.0161,0.015,0.0153,0.0224,0.0202,0.0248,0.032,0.0348,0.038,0.0503,0.0568,0.0613,0.0605,0.0638,0.0654,0.0646,0.0615,0.0611,0.0607,0.0634,0.0633,0.0654,0.0654,0.0655,0.0655,0,0.0061,0.0051,0.004,0.0052,0.0062,0.0052,0.011,0.0136,0.0188,0.0245,0.0305,0.0403,0.0476,0.0494,0.0549,0.0552,0.0573,0.0598,0.0638,0.0592,0.0623,0.0624,0.0646,0.0648,0.0649,0.0651,0,0,-0.0008,-0.0002,-0.0008,-0.0024,0.0005,0.0005,0.0019,0.0058,0.0077,0.0158,0.0188,0.0285,0.0349,0.0395,0.0464,0.0485,0.0474,0.052,0.0524,0.0537,0.0504,0.0555,0.0562,0.048,0.048,0.048,0.0533,0,-0.0072,-0.012,-0.0096,-0.0148,-0.017,-0.0115,-0.0108,-0.006,0.0011,0.0063,0.0171,0.0232,0.0308,0.0342,0.0372,0.0449,0.0472,0.0458,0.0555,0.0559,0.0603,0.0563,0.0613,0.0667,0.0534,0.0534,0.0535,0,-0.0135,-0.016,-0.0221,-0.0244,-0.0249,-0.0262,-0.0238,-0.0221,-0.0123,-0.0066,0.0021,0.012,0.0191,0.0253,0.0356,0.0336,0.041,0.047,0.0474,0.0565,0.0612,0.0696,0.0674,0.0837,0.0536,0.0536,0.0536,0,-0.0202,-0.025,-0.0303,-0.0313,-0.032,-0.0331,-0.0329,-0.0256,-0.0239,-0.0138,-0.0097,0.0009,0.0073,0.016,0.0319,0.032,0.0428,0.0447,0.0568,0.0573,0.0661,0.0674,0.0805,0.0511,0.0511,0.0511,0.0511,0,-0.0273,-0.0317,-0.0338,-0.0367,-0.0428,-0.0406,-0.0434,-0.0394,-0.034,-0.0313,-0.0166,-0.01,0.0048,0.0158,0.0276,0.0431,0.0398,0.0557,0.0587,0.0624,0.0632,0.0816,0.0876,0.0513,0.0512,0.0512,0.0512,0,-0.0321,-0.034,-0.0403,-0.0439,-0.0457,-0.0494,-0.0519,-0.0525,-0.0455,-0.0414,-0.0385,-0.0208,-0.0058,0.0111,0.0269,0.0386,0.0625,0.0591,0.0633,0.0667,0.0913,0.0963,0.1112,0.1215,0.0706,0.0708,0.0709,0,-0.0343,-0.0379,-0.0455,-0.0499,-0.0516,-0.0571,-0.0603,-0.0584,-0.0588,-0.0458,-0.0445,-0.0268,-0.011,0.0156,0.0371,0.0577,0.0709,0.0751,0.0769,0.0935,0.1012,0.1044,0.1123,0.0839,0.0841,0.0843,0.0845,0,-0.0376,-0.0401,-0.0451,-0.0546,-0.0604,-0.0676,-0.072,-0.075,-0.0703,-0.0634,-0.0488,-0.0341,-0.0036,0.0249,0.0521,0.0654,0.0875,0.0795,0.0955,0.1118,0.1173,0.1284,0.0803,0.0861,0.086,0.0858,0.0857,0.0857,-0.0386,-0.0432,-0.0498,-0.0589,-0.0664,-0.0751,-0.0796,-0.0833,-0.0827,-0.0694,-0.0518,-0.0213,0.0172,0.0578,0.0725,0.1071,0.1025,0.119,0.1234,0.1248,0.1363,0.0922,0.1021,0.102,0.102,0.1019,0.1019,0,-0.0397,-0.0452,-0.0537,-0.0643,-0.0727,-0.0761,-0.0848,-0.0869,-0.0863,-0.0664,-0.0462,0.0131,0.0518,0.0877,0.1313,0.151,0.1556,0.1609,0.1677,0.1734,0.1342,0.1367,0.156,0.156,0.1559,0.1559,0.1559,0.1559,-0.0403,-0.0479,-0.0534,-0.0667,-0.0737,-0.082,-0.0865,-0.0883,-0.078,-0.0456,-0.0067,0.0271,0.0788,0.1456,0.1883,0.1925,0.2114,0.2081,0.2178,0.1923,0.1887,0.1853,0.1894,0.2194,0.2195,0.258,0.2584,0.2586]}],[{"header":{"parameterUnit":"m.s-1","parameterCategory":2,"la1":30.2991,"la2":30.254,"lo1":-89.0895,"lo2":-89.0444,"dy":0.0017,"dx":0.0017,"nx":28,"ny":28,"refTime":"2025-11-23T03:00:00:Z","depth":"2","parameterNumber":2,"parameterNumberName":"U-component_of_CURRENTS"},"data":[0,0,0,0,0,0,0,0,0,0,0,0,0,0,0,0,0,0,0,0,0,0,0,0,0,0,0,0,0,0,0,0,0,0,0,0,0,0,0,0,0,0,0,0,0,0,0,0,0,0,0,0,0,0,0,0,0,0,-0.1895,-0.1896,0,-0.1975,-0.1976,-0.1976,-0.2007,-0.2007,-0.2007,-0.2007,-0.21,-0.2102,-0.2104,0,0,0,0,0,0,0,0,0,0,0,0,0,-0.1792,-0.1794,-0.1894,-0.1896,-0.1897,-0.1975,-0.1976,-0.1976,-0.2007,-0.2007,-0.2007,-0.2007,-0.2099,-0.2102,-0.2105,0,0,0,0,0,0,0,0,0,0,0,0,0,-0.1846,-0.1794,-0.1894,-0.1926,-0.193,-0.1975,-0.1976,-0.1976,-0.2007,-0.2007,-0.2007,-0.2007,-0.2098,-0.2102,-0.2105,-0.212,0,0,-0.2115,-0.2117,0,0,0,0,0,0,0,0,-0.1843,-0.1849,-0.192,-0.1924,-0.1928,-0.1985,-0.1974,-0.2027,-0.2006,-0.1972,-0.2007,-0.2008,-0.2066,-0.2072,-0.2079,-0.2124,-0.2128,-0.2116,-0.2118,-0.2119,-0.212,0,0,0,0,0,0,0,-0.1839,-0.1846,-0.1921,-0.1921,-0.1926,-0.1945,-0.1952,-0.1984,-0.2013,-0.1975,-0.1979,-0.1995,-0.2068,-0.2076,-0.2082,-0.2129,-0.2116,-0.2119,-0.2121,-0.2122,-0.2253,-0.2254,0,0,0,0,0,0,-0.1838,-0.1843,-0.1919,-0.1924,-0.1891,-0.1946,-0.1954,-0.1963,-0.2012,-0.2021,-0.1995,-0.1997,-0.207,-0.2078,-0.2085,-0.2168,-0.2119,-0.2122,-0.2124,-0.2251,-0.2253,-0.2254,0,0,0,0,0,0,-0.1835,-0.1844,-0.1916,-0.189,-0.1901,-0.1948,-0.1957,-0.1964,-0.1981,-0.2028,-0.2036,-0.2006,-0.207,-0.208,-0.2125,-0.217,-0.2124,-0.2127,-0.2249,-0.2252,-0.2254,-0.2295,0,0,0,0,0,0,-0.1832,-0.1842,-0.1855,-0.1889,-0.1903,-0.1957,-0.1958,-0.1966,-0.1993,-0.1996,-0.204,-0.2049,-0.2071,-0.212,-0.2129,-0.2174,-0.213,-0.2248,-0.225,-0.2253,-0.2291,-0.2298,-0.2303,0,0,0,0,0,-0.1828,-0.1847,-0.1855,-0.1865,-0.1916,-0.1959,-0.1967,-0.1998,-0.1993,-0.201,-0.2036,-0.2048,-0.2144,-0.2124,-0.2133,-0.2181,-0.2246,-0.225,-0.2253,-0.2289,-0.2297,-0.2303,0,0,0,0,0,0,-0.182,-0.1854,-0.1862,-0.1894,-0.193,-0.1966,-0.1987,-0.1999,-0.2031,-0.2038,-0.206,-0.2071,-0.2138,-0.2144,-0.2121,-0.2225,-0.22,-0.2205,-0.2224,-0.2231,-0.2237,-0.22,-0.2132,0,0,0,0,0,-0.1822,-0.184,-0.1878,-0.1906,-0.1918,-0.1948,-0.197,-0.1996,-0.2028,-0.2041,-0.2074,-0.2111,-0.2157,-0.2179,-0.2224,-0.2267,-0.2234,-0.2305,-0.2311,-0.2316,-0.2293,-0.2267,-0.2267,-0.2265,-0.2265,-0.2265,0,0,-0.1824,-0.1851,-0.186,-0.1906,-0.1927,-0.1958,-0.1961,-0.2004,-0.2033,-0.2048,-0.2097,-0.2141,-0.2175,-0.224,-0.2268,-0.2249,-0.2306,-0.232,-0.2324,-0.2297,-0.227,-0.227,-0.227,-0.2267,-0.2267,-0.2266,0,0,-0.184,-0.186,-0.1876,-0.1908,-0.1959,-0.198,-0.1991,-0.2037,-0.2057,-0.2108,-0.2137,-0.2187,-0.2251,-0.2287,-0.2309,-0.2366,-0.2346,-0.2401,-0.2393,-0.237,-0.2369,-0.2367,-0.2343,-0.2339,-0.2394,-0.2394,-0.2394,0,-0.184,-0.187,-0.1891,-0.1924,-0.1956,-0.1984,-0.2017,-0.2041,-0.2104,-0.212,-0.2131,-0.2217,-0.2267,-0.2316,-0.2355,-0.2379,-0.2356,-0.2365,-0.2374,-0.2372,-0.237,-0.2345,-0.234,-0.2396,-0.2396,-0.2396,-0.2396,0,-0.1873,-0.1898,-0.1913,-0.1954,-0.1994,-0.2031,-0.2071,-0.2108,-0.2133,-0.2157,-0.2213,-0.2261,-0.2301,-0.2348,-0.2376,-0.2405,-0.2393,-0.2392,-0.2349,-0.2372,-0.2346,-0.234,-0.24,-0.2399,-0.2398,-0.2397,0,0,-0.1853,-0.1916,-0.1923,-0.1943,-0.2016,-0.2047,-0.2098,-0.2141,-0.2159,-0.2207,-0.2221,-0.2311,-0.2319,-0.2342,-0.2383,-0.2377,-0.2378,-0.2383,-0.2381,-0.2345,-0.2319,-0.2243,-0.2229,-0.2375,-0.2374,-0.2373,-0.2313,0,-0.1863,-0.1913,-0.1959,-0.2009,-0.2025,-0.2085,-0.2124,-0.2176,-0.2209,-0.2233,-0.2254,-0.2291,-0.2317,-0.2347,-0.2343,-0.2386,-0.236,-0.2393,-0.2312,-0.231,-0.2227,-0.2218,-0.206,-0.1985,-0.2306,-0.2305,-0.2305,0,-0.1875,-0.1902,-0.1949,-0.2013,-0.2029,-0.2078,-0.2144,-0.2186,-0.2225,-0.2254,-0.2267,-0.2273,-0.2297,-0.2301,-0.2299,-0.232,-0.2312,-0.2318,-0.2315,-0.2214,-0.222,-0.2012,-0.1961,-0.2294,-0.2295,-0.2295,-0.2296,0,-0.1838,-0.1897,-0.1931,-0.1958,-0.2035,-0.2079,-0.2128,-0.219,-0.2218,-0.2254,-0.2261,-0.2268,-0.2273,-0.2255,-0.2267,-0.2285,-0.224,-0.2261,-0.2164,-0.216,-0.1989,-0.197,-0.2209,-0.2209,-0.221,-0.221,-0.221,0,-0.1835,-0.186,-0.1912,-0.1941,-0.1967,-0.205,-0.2103,-0.2151,-0.2211,-0.2221,-0.2251,-0.2235,-0.2259,-0.2233,-0.224,-0.2174,-0.2203,-0.214,-0.2127,-0.2003,-0.1987,-0.2225,-0.2227,-0.2208,-0.2208,-0.2208,-0.2209,0,-0.1804,-0.1842,-0.1874,-0.1945,-0.1953,-0.1984,-0.2081,-0.2104,-0.2178,-0.2188,-0.219,-0.2212,-0.2175,-0.2168,-0.2155,-0.2128,-0.209,-0.2052,-0.1906,-0.1876,-0.2033,-0.2039,-0.1931,-0.1928,-0.1925,-0.1922,-0.192,0,-0.1802,-0.181,-0.1853,-0.1853,-0.1891,-0.194,-0.1958,-0.2066,-0.2098,-0.2153,-0.2134,-0.2111,-0.205,-0.1994,-0.1944,-0.1882,-0.1984,-0.1724,-0.1721,-0.2,-0.1999,-0.201,-0.202,-0.1524,-0.1519,-0.1515,-0.1511,0,-0.1785,-0.1802,-0.182,-0.1798,-0.1817,-0.1835,-0.1886,-0.19,-0.2003,-0.2004,-0.1984,-0.1936,-0.1863,-0.172,-0.1659,-0.1616,-0.1726,-0.1635,-0.1938,-0.1625,-0.1612,-0.1614,-0.1637,-0.1474,-0.1478,-0.148,-0.1483,-0.1484,-0.1762,-0.1759,-0.1763,-0.1734,-0.1745,-0.1726,-0.1715,-0.1748,-0.1752,-0.1733,-0.1782,-0.1668,-0.1649,-0.1444,-0.1369,-0.1322,-0.1445,-0.1411,-0.1426,-0.1444,-0.1414,-0.1396,-0.1212,-0.1214,-0.1216,-0.1218,-0.1219,0,-0.1723,-0.1717,-0.1688,-0.166,-0.162,-0.1678,-0.1649,-0.1592,-0.153,-0.1517,-0.1477,-0.1295,-0.1177,-0.1168,-0.1016,-0.0994,-0.0999,-0.0975,-0.0987,-0.1024,-0.1056,-0.1009,-0.0698,-0.0697,-0.0696,-0.0694,0,0,-0.1705,-0.1658,-0.1624,-0.1524,-0.1531,-0.1486,-0.1458,-0.1333,-0.1264,-0.1125,-0.1072,-0.1129,-0.1121,-0.0916,-0.0864,-0.0755,-0.0884,-0.0714,-0.1128,-0.1177,-0.1208,-0.1298,-0.1263,0,0,0,0,0]},{"header":{"parameterUnit":"m.s-1","parameterCategory":2,"la1":30.2991,"la2":30.254,"lo1":-89.0895,"lo2":-89.0444,"dy":0.0017,"dx":0.0017,"nx":28,"ny":28,"refTime":"2025-11-23T03:00:00:Z","depth":"2","parameterNumber":3,"parameterNumberName":"V-component_of_CURRENTS"},"data":[0,0,0,0,0,0,0,0,0,0,0,0,0,0,0,0,0,0,0,0,0,0,0,0,0,0,0,0,0,0,0,0,0,0,0,0,0,0,0,0,0,0,0,0,0,0,0,0,0,0,0,0,0,0,0,0,0,0,-0.0144,-0.0144,0,-0.0074,-0.0073,-0.0072,-0.0014,-0.0014,-0.0014,-0.0013,0.0118,0.0122,0.0125,0,0,0,0,0,0,0,0,0,0,0,0,0,-0.0181,-0.018,-0.0144,-0.0144,-0.0143,-0.0074,-0.0073,-0.0071,-0.0015,-0.0014,-0.0014,-0.0013,0.0117,0.0121,0.0125,0,0,0,0,0,0,0,0,0,0,0,0,0,-0.0141,-0.018,-0.0144,-0.0108,-0.0104,-0.0074,-0.0072,-0.0071,-0.0015,-0.0014,-0.0013,-0.0013,0.0116,0.0121,0.0125,0.0143,0,0,0.014,0.0142,0,0,0,0,0,0,0,0,-0.0143,-0.0139,-0.0114,-0.011,-0.0106,-0.0054,-0.0037,0.0003,-0.0015,-0.0046,-0.0013,-0.0013,0.0065,0.0074,0.0088,0.0149,0.0155,0.014,0.0143,0.0145,0.0147,0,0,0,0,0,0,0,-0.0146,-0.0142,-0.0114,-0.0113,-0.0109,-0.0078,-0.0072,-0.0029,0.0008,-0.0043,-0.004,-0.0036,0.0068,0.0083,0.0091,0.0157,0.014,0.0144,0.0147,0.0149,0.0273,0.0273,0,0,0,0,0,0,-0.0163,-0.0145,-0.0116,-0.0112,-0.0126,-0.0078,-0.0071,-0.007,0.0006,0.0017,-0.0036,-0.0033,0.0075,0.0086,0.0096,0.0146,0.0145,0.015,0.0152,0.0272,0.0273,0.0273,0,0,0,0,0,0,-0.0164,-0.0161,-0.0119,-0.0128,-0.0121,-0.0079,-0.0077,-0.0069,-0.0051,0.0011,0.0024,-0.0027,0.0076,0.009,0.0134,0.0151,0.0152,0.0156,0.0272,0.0272,0.0273,0.023,0,0,0,0,0,0,-0.0165,-0.0162,-0.0164,-0.013,-0.0121,-0.0105,-0.0077,-0.0068,-0.005,-0.0046,0.0023,0.0035,0.0077,0.0126,0.0138,0.0157,0.016,0.0271,0.0272,0.0273,0.0231,0.0229,0.0227,0,0,0,0,0,-0.0167,-0.0175,-0.0165,-0.0161,-0.0127,-0.0105,-0.0098,-0.0064,-0.0051,-0.0045,-0.0,0.0033,0.0141,0.013,0.0144,0.0165,0.0271,0.0272,0.0273,0.0231,0.0229,0.0227,0,0,0,0,0,0,-0.0189,-0.0169,-0.0157,-0.0158,-0.0135,-0.0096,-0.0091,-0.0069,-0.003,-0.0024,0.0035,0.005,0.0102,0.0133,0.012,0.0203,0.0213,0.0217,0.0177,0.0176,0.0174,0.0141,0.0164,0,0,0,0,0,-0.0198,-0.02,-0.0172,-0.0173,-0.0165,-0.0129,-0.0116,-0.0094,-0.0058,-0.0041,0.0008,0.0062,0.0116,0.0143,0.0194,0.023,0.0253,0.0255,0.0253,0.0251,0.0235,0.0276,0.0276,0.0276,0.0276,0.0276,0,0,-0.0207,-0.0197,-0.0197,-0.0178,-0.0159,-0.0151,-0.0119,-0.0105,-0.0092,-0.0032,0.0004,0.006,0.0125,0.0174,0.0199,0.0201,0.0266,0.0253,0.0251,0.0235,0.0277,0.0276,0.0276,0.0277,0.0277,0.0277,0,0,-0.0233,-0.0219,-0.0231,-0.0216,-0.0195,-0.017,-0.017,-0.0131,-0.0106,-0.0072,-0.0015,0.0037,0.0113,0.0163,0.0198,0.0214,0.0259,0.0244,0.0207,0.0247,0.0247,0.0247,0.0283,0.0287,0.0239,0.0239,0.0239,0,-0.0245,-0.0256,-0.023,-0.0236,-0.0228,-0.0183,-0.019,-0.0158,-0.0107,-0.0087,-0.0068,0.0045,0.0104,0.0163,0.0177,0.0209,0.0238,0.0208,0.0243,0.0244,0.0244,0.0282,0.0286,0.0237,0.0237,0.0237,0.0237,0,-0.028,-0.0285,-0.0291,-0.0284,-0.0269,-0.0267,-0.0226,-0.02,-0.0166,-0.013,-0.0069,0.0004,0.0067,0.0107,0.015,0.0195,0.0217,0.0238,0.0242,0.0241,0.0281,0.0287,0.0234,0.0235,0.0235,0.0236,0,0,-0.0314,-0.0318,-0.0319,-0.0327,-0.0295,-0.0289,-0.0264,-0.023,-0.0213,-0.0156,-0.0131,-0.0035,0.0003,0.0044,0.011,0.0149,0.0194,0.0193,0.0196,0.0217,0.0284,0.0311,0.032,0.0225,0.0225,0.0226,0.0312,0,-0.0349,-0.0384,-0.0366,-0.0383,-0.0394,-0.0344,-0.0326,-0.0284,-0.0236,-0.0195,-0.0123,-0.0069,-0.0019,0.0017,0.0062,0.0169,0.0205,0.0168,0.0291,0.0294,0.0309,0.0326,0.0309,0.0385,0.0318,0.0319,0.0319,0,-0.0388,-0.0407,-0.044,-0.0438,-0.0437,-0.0434,-0.0397,-0.0373,-0.03,-0.0261,-0.0206,-0.0141,-0.0065,-0.0027,0.0109,0.0086,0.0173,0.0245,0.025,0.0289,0.0331,0.0376,0.0398,0.0329,0.0328,0.0327,0.0327,0,-0.0438,-0.0454,-0.0487,-0.0487,-0.0474,-0.0474,-0.0458,-0.0397,-0.0376,-0.0304,-0.0276,-0.0188,-0.0133,-0.003,0.0119,0.0119,0.0269,0.0288,0.0387,0.039,0.0404,0.0407,0.0369,0.0369,0.0369,0.0368,0.0368,0,-0.0486,-0.0509,-0.0517,-0.0537,-0.0563,-0.0529,-0.0535,-0.0497,-0.0443,-0.0415,-0.0322,-0.0276,-0.013,-0.0021,0.0102,0.0262,0.0254,0.0378,0.0414,0.0391,0.0392,0.0361,0.0359,0.0372,0.0371,0.037,0.037,0,-0.0539,-0.0544,-0.0586,-0.0593,-0.0594,-0.0614,-0.0599,-0.0594,-0.0531,-0.049,-0.047,-0.0337,-0.0191,-0.0041,0.0146,0.0245,0.0392,0.045,0.0412,0.0441,0.0488,0.0483,0.056,0.0561,0.0563,0.0564,0.0565,0,-0.0576,-0.0604,-0.0639,-0.0666,-0.0676,-0.0694,-0.0698,-0.0648,-0.0631,-0.052,-0.05,-0.0355,-0.0232,0.0041,0.0233,0.0437,0.0439,0.0538,0.053,0.048,0.0508,0.0501,0.0494,0.0539,0.054,0.054,0.0541,0,-0.0642,-0.0654,-0.069,-0.0746,-0.0772,-0.079,-0.0788,-0.0786,-0.0707,-0.064,-0.0524,-0.0417,-0.0154,0.0077,0.0335,0.0451,0.05,0.0556,0.0525,0.0489,0.0467,0.0492,0.0485,0.0546,0.0545,0.0545,0.0545,0.0544,-0.0687,-0.0732,-0.0777,-0.0825,-0.0861,-0.0877,-0.088,-0.0838,-0.0787,-0.0659,-0.0555,-0.0348,-0.0138,0.0242,0.0412,0.057,0.057,0.0618,0.0614,0.061,0.0588,0.0569,0.0663,0.0663,0.0663,0.0663,0.0663,0,-0.0741,-0.079,-0.0845,-0.09,-0.094,-0.0948,-0.0929,-0.0883,-0.0802,-0.0652,-0.0507,-0.0229,0.0029,0.0243,0.0503,0.0652,0.0631,0.0668,0.0616,0.0611,0.0606,0.0581,0.0656,0.0656,0.0657,0.0657,0,0,-0.0772,-0.0838,-0.0863,-0.0946,-0.0995,-0.1024,-0.1014,-0.0901,-0.0767,-0.0576,-0.0406,-0.0217,0.0058,0.0238,0.0418,0.0548,0.0536,0.0553,0.0547,0.0459,0.0452,0.057,0.0525,0,0,0,0,0]}],[{"header":{"parameterUnit":"m.s-1","parameterCategory":2,"la1":30.2991,"la2":30.254,"lo1":-89.0895,"lo2":-89.0444,"dy":0.0017,"dx":0.0017,"nx":28,"ny":28,"refTime":"2025-11-23T03:00:00:Z","depth":"4","parameterNumber":2,"parameterNumberName":"U-component_of_CURRENTS"},"data":[0,0,0,0,0,0,0,0,0,0,0,0,0,0,0,0,0,0,0,0,0,0,0,0,0,0,0,0,0,0,0,0,0,0,0,0,0,0,0,0,0,0,0,0,0,0,0,0,0,0,0,0,0,0,0,0,0,0,-0.1263,-0.1263,0,-0.1334,-0.1335,-0.1336,-0.1373,-0.1373,-0.1373,-0.1373,-0.1439,-0.1441,-0.1442,0,0,0,0,0,0,0,0,0,0,0,0,0,-0.1185,-0.1185,-0.1262,-0.1263,-0.1264,-0.1334,-0.1335,-0.1336,-0.1373,-0.1373,-0.1373,-0.1373,-0.1439,-0.144,-0.1442,0,0,0,0,0,0,0,0,0,0,0,0,0,-0.1232,-0.1186,-0.1262,-0.1292,-0.1296,-0.1334,-0.1335,-0.1336,-0.1373,-0.1373,-0.1373,-0.1373,-0.1438,-0.144,-0.1443,-0.1452,0,0,-0.145,-0.1451,0,0,0,0,0,0,0,0,-0.1229,-0.1234,-0.1287,-0.129,-0.1294,-0.1346,-0.1332,-0.1375,-0.1372,-0.1342,-0.1373,-0.1374,-0.1408,-0.1413,-0.1424,-0.1455,-0.1458,-0.145,-0.1452,-0.1453,-0.1453,0,0,0,0,0,0,0,-0.1226,-0.1232,-0.1289,-0.1288,-0.1293,-0.1312,-0.1318,-0.134,-0.1371,-0.1345,-0.1348,-0.1358,-0.141,-0.1421,-0.1426,-0.1459,-0.145,-0.1452,-0.1454,-0.1455,-0.1559,-0.156,0,0,0,0,0,0,-0.1219,-0.1229,-0.1287,-0.1292,-0.1264,-0.1313,-0.132,-0.1328,-0.1371,-0.1379,-0.1358,-0.136,-0.1417,-0.1423,-0.1428,-0.1497,-0.1453,-0.1455,-0.1456,-0.1558,-0.1559,-0.1561,0,0,0,0,0,0,-0.1216,-0.1223,-0.1284,-0.1263,-0.1272,-0.1314,-0.1322,-0.1329,-0.1363,-0.1382,-0.1389,-0.1387,-0.1418,-0.1425,-0.1471,-0.1498,-0.1456,-0.1458,-0.1556,-0.1558,-0.156,-0.1599,0,0,0,0,0,0,-0.1214,-0.1222,-0.1235,-0.1262,-0.1273,-0.1323,-0.1322,-0.1331,-0.1368,-0.1372,-0.1409,-0.1414,-0.1418,-0.1468,-0.1474,-0.15,-0.146,-0.1554,-0.1557,-0.1559,-0.1596,-0.1602,-0.1607,0,0,0,0,0,-0.1211,-0.1225,-0.1235,-0.1243,-0.1286,-0.1324,-0.1332,-0.1361,-0.1369,-0.139,-0.1418,-0.1414,-0.1488,-0.1471,-0.1478,-0.1505,-0.1553,-0.1556,-0.1559,-0.1593,-0.1601,-0.1607,0,0,0,0,0,0,-0.1202,-0.1231,-0.1242,-0.1266,-0.13,-0.1331,-0.1355,-0.1374,-0.1412,-0.142,-0.1434,-0.1442,-0.1492,-0.1495,-0.1476,-0.1543,-0.1519,-0.1523,-0.1543,-0.155,-0.1555,-0.1548,-0.1462,0,0,0,0,0,-0.1205,-0.1221,-0.1255,-0.1277,-0.1294,-0.1328,-0.1351,-0.1373,-0.1405,-0.1423,-0.1451,-0.1479,-0.1506,-0.1525,-0.1549,-0.1588,-0.1582,-0.1609,-0.1615,-0.1619,-0.1619,-0.1647,-0.1655,-0.1571,-0.1571,-0.1571,0,0,-0.121,-0.1226,-0.1239,-0.1277,-0.1303,-0.1338,-0.1343,-0.1384,-0.142,-0.1423,-0.1486,-0.1504,-0.1521,-0.1565,-0.1587,-0.1574,-0.1638,-0.1623,-0.1627,-0.1624,-0.1651,-0.1659,-0.1667,-0.1573,-0.1572,-0.1572,0,0,-0.122,-0.1242,-0.1258,-0.1289,-0.1333,-0.1358,-0.1375,-0.1422,-0.1452,-0.1508,-0.1518,-0.1551,-0.1602,-0.1615,-0.1627,-0.1679,-0.1668,-0.1692,-0.1715,-0.1743,-0.175,-0.1756,-0.1744,-0.1748,-0.1693,-0.1693,-0.1693,0,-0.1225,-0.1249,-0.1272,-0.1299,-0.133,-0.1369,-0.1404,-0.1441,-0.1502,-0.1525,-0.1535,-0.1607,-0.1622,-0.1664,-0.1682,-0.1691,-0.1695,-0.1686,-0.175,-0.1756,-0.1761,-0.1747,-0.1752,-0.1695,-0.1695,-0.1695,-0.1694,0,-0.1242,-0.1274,-0.129,-0.1334,-0.1372,-0.141,-0.1462,-0.1507,-0.1548,-0.1578,-0.1639,-0.1665,-0.1701,-0.1715,-0.1717,-0.1765,-0.175,-0.1754,-0.1729,-0.1772,-0.1754,-0.1759,-0.1698,-0.1698,-0.1697,-0.1696,0,0,-0.1217,-0.1287,-0.1294,-0.1326,-0.1395,-0.1427,-0.1492,-0.1552,-0.1592,-0.1649,-0.17,-0.1744,-0.1753,-0.1766,-0.1775,-0.1801,-0.1837,-0.1799,-0.1799,-0.1779,-0.1878,-0.1731,-0.1721,-0.1861,-0.1863,-0.1864,-0.1844,0,-0.1225,-0.1274,-0.1313,-0.1379,-0.1413,-0.1473,-0.153,-0.159,-0.1642,-0.1703,-0.1733,-0.1783,-0.1775,-0.1797,-0.1823,-0.1842,-0.1853,-0.184,-0.1845,-0.1844,-0.1704,-0.1723,-0.1868,-0.1847,-0.1848,-0.1848,-0.1849,0,-0.122,-0.1259,-0.1318,-0.1403,-0.1424,-0.1475,-0.1563,-0.1618,-0.17,-0.1739,-0.1785,-0.1815,-0.1858,-0.1853,-0.1888,-0.1885,-0.1882,-0.1888,-0.1888,-0.1739,-0.1705,-0.18,-0.1856,-0.1855,-0.1855,-0.1854,-0.1854,0,-0.1173,-0.126,-0.1308,-0.1339,-0.144,-0.1485,-0.1543,-0.1627,-0.1673,-0.1761,-0.1796,-0.1852,-0.1884,-0.1907,-0.1905,-0.1913,-0.1935,-0.1943,-0.1799,-0.1787,-0.1909,-0.1903,-0.1963,-0.1963,-0.1963,-0.1963,-0.1963,0,-0.1148,-0.1192,-0.1296,-0.1321,-0.1387,-0.1468,-0.1539,-0.1599,-0.169,-0.1733,-0.1806,-0.1834,-0.1906,-0.1923,-0.1921,-0.1852,-0.194,-0.1793,-0.1775,-0.1923,-0.1919,-0.1911,-0.1905,-0.1963,-0.1963,-0.1963,-0.1963,0,-0.1083,-0.1152,-0.1212,-0.1324,-0.1364,-0.1409,-0.1527,-0.1568,-0.1662,-0.1722,-0.1751,-0.1834,-0.1838,-0.1868,-0.1897,-0.1843,-0.1814,-0.1767,-0.1896,-0.1887,-0.1644,-0.1641,-0.1606,-0.1601,-0.1596,-0.1592,-0.1589,0,-0.1052,-0.1077,-0.1191,-0.1224,-0.1279,-0.1364,-0.1414,-0.1535,-0.1575,-0.1694,-0.1705,-0.1754,-0.1785,-0.1689,-0.1744,-0.1704,-0.1688,-0.1662,-0.1673,-0.1622,-0.1609,-0.1613,-0.1616,-0.1582,-0.1581,-0.158,-0.1579,0,-0.0991,-0.1037,-0.108,-0.1142,-0.1205,-0.1267,-0.135,-0.1371,-0.1498,-0.1604,-0.1604,-0.1603,-0.1595,-0.1592,-0.156,-0.1543,-0.168,-0.1616,-0.1625,-0.1635,-0.1593,-0.1585,-0.1593,-0.1563,-0.1565,-0.1567,-0.1568,0,-0.0937,-0.0948,-0.1002,-0.1047,-0.1113,-0.114,-0.1205,-0.1253,-0.1312,-0.1453,-0.1447,-0.1496,-0.1575,-0.1506,-0.1486,-0.1442,-0.1427,-0.1396,-0.1417,-0.1435,-0.1388,-0.131,-0.1168,0,0,0,0,0,-0.0879,-0.0876,-0.0905,-0.0942,-0.0997,-0.1036,-0.1145,-0.1216,-0.1348,-0.1303,-0.1372,-0.1356,-0.1325,-0.1356,-0.1271,-0.1401,-0.1428,-0.1299,-0.1404,-0.1477,-0.1495,-0.1455,0,0,0,0,0,0,-0.084,-0.0858,-0.0866,-0.0841,-0.0841,-0.0895,-0.0956,-0.105,-0.1039,-0.1173,-0.1155,-0.126,-0.1239,-0.1332,-0.1234,-0.1242,-0.1279,-0.1341,-0.1337,-0.1467,-0.1483,-0.1497,-0.1462,0,0,0,0,0]},{"header":{"parameterUnit":"m.s-1","parameterCategory":2,"la1":30.2991,"la2":30.254,"lo1":-89.0895,"lo2":-89.0444,"dy":0.0017,"dx":0.0017,"nx":28,"ny":28,"refTime":"2025-11-23T03:00:00:Z","depth":"4","parameterNumber":3,"parameterNumberName":"V-component_of_CURRENTS"},"data":[0,0,0,0,0,0,0,0,0,0,0,0,0,0,0,0,0,0,0,0,0,0,0,0,0,0,0,0,0,0,0,0,0,0,0,0,0,0,0,0,0,0,0,0,0,0,0,0,0,0,0,0,0,0,0,0,0,0,-0.0128,-0.0128,0,-0.0093,-0.0093,-0.0092,-0.0065,-0.0065,-0.0065,-0.0065,-0.0009,-0.0007,-0.0006,0,0,0,0,0,0,0,0,0,0,0,0,0,-0.0138,-0.0138,-0.0128,-0.0128,-0.0127,-0.0093,-0.0093,-0.0092,-0.0065,-0.0065,-0.0065,-0.0064,-0.0009,-0.0007,-0.0006,0,0,0,0,0,0,0,0,0,0,0,0,0,-0.0121,-0.0139,-0.0128,-0.0111,-0.0109,-0.0093,-0.0093,-0.0092,-0.0065,-0.0065,-0.0065,-0.0064,-0.001,-0.0008,-0.0006,0.0003,0,0,0.0001,0.0002,0,0,0,0,0,0,0,0,-0.0122,-0.012,-0.0113,-0.0112,-0.011,-0.0084,-0.0076,-0.006,-0.0065,-0.008,-0.0065,-0.0064,-0.0033,-0.0029,-0.0021,0.0006,0.0008,0.0001,0.0002,0.0003,0.0004,0,0,0,0,0,0,0,-0.0123,-0.0121,-0.0113,-0.0113,-0.0111,-0.0094,-0.0091,-0.0073,-0.0057,-0.0079,-0.0077,-0.0076,-0.0032,-0.0023,-0.002,0.0009,0.0001,0.0003,0.0004,0.0005,0.005,0.005,0,0,0,0,0,0,-0.0132,-0.0123,-0.0114,-0.0112,-0.0117,-0.0094,-0.0091,-0.0092,-0.0057,-0.0052,-0.0076,-0.0074,-0.0027,-0.0022,-0.0018,-0.0006,0.0003,0.0005,0.0006,0.005,0.005,0.005,0,0,0,0,0,0,-0.0132,-0.0132,-0.0115,-0.0117,-0.0114,-0.0094,-0.0095,-0.0091,-0.0083,-0.0055,-0.005,-0.0073,-0.0027,-0.002,-0.0001,-0.0004,0.0006,0.0008,0.005,0.005,0.005,0.0017,0,0,0,0,0,0,-0.0133,-0.0132,-0.0135,-0.0118,-0.0115,-0.0111,-0.0095,-0.0091,-0.0083,-0.0081,-0.0051,-0.0045,-0.0026,-0.0005,0.0001,-0.0001,0.0009,0.005,0.005,0.005,0.0019,0.0016,0.0014,0,0,0,0,0,-0.0133,-0.0141,-0.0135,-0.0134,-0.012,-0.0112,-0.0108,-0.0092,-0.0084,-0.0083,-0.006,-0.0046,-0.0001,-0.0003,0.0003,0.0002,0.005,0.005,0.005,0.002,0.0017,0.0014,0,0,0,0,0,0,-0.0145,-0.0139,-0.0132,-0.0136,-0.0127,-0.0108,-0.0107,-0.0095,-0.0077,-0.0075,-0.0045,-0.0038,-0.0023,-0.0006,-0.0008,0.0016,0.0026,0.0028,0.0001,-0.0001,-0.0003,-0.0014,0.0011,0,0,0,0,0,-0.0151,-0.0155,-0.0143,-0.0146,-0.0144,-0.0126,-0.012,-0.011,-0.0093,-0.0085,-0.0062,-0.0039,-0.0019,-0.0007,0.0012,0.0026,0.0057,0.003,0.0028,0.0026,0.0021,0.0076,0.0079,0.005,0.005,0.005,0,0,-0.0156,-0.0153,-0.0155,-0.015,-0.0141,-0.0142,-0.0122,-0.0119,-0.0114,-0.0082,-0.0068,-0.0046,-0.0017,-0.0002,0.0007,0.0013,0.0049,0.0026,0.0024,0.002,0.0077,0.008,0.0082,0.005,0.005,0.005,0,0,-0.0174,-0.0167,-0.018,-0.0175,-0.0168,-0.0156,-0.0157,-0.014,-0.0126,-0.0113,-0.0087,-0.0068,-0.0038,-0.0016,-0.0002,-0.0004,0.0035,0.0003,-0.0014,0.0039,0.0042,0.0045,0.0084,0.009,0.0004,0.0004,0.0004,0,-0.0181,-0.0195,-0.0181,-0.0191,-0.019,-0.0165,-0.0175,-0.0158,-0.0134,-0.0122,-0.0114,-0.0067,-0.0045,-0.002,-0.0023,-0.0009,0.0026,-0.0008,0.0037,0.0041,0.0044,0.0083,0.0091,0.0002,0.0002,0.0002,0.0003,0,-0.0208,-0.0218,-0.0225,-0.0229,-0.0223,-0.0229,-0.0206,-0.0195,-0.0177,-0.0156,-0.0129,-0.0096,-0.0068,-0.0058,-0.0042,-0.0009,0.0009,0.0027,0.0043,0.0045,0.0086,0.0095,-0.0,0.0,0.0001,0.0001,0,0,-0.0223,-0.0242,-0.0244,-0.0256,-0.0245,-0.0246,-0.0235,-0.0218,-0.0209,-0.0178,-0.0161,-0.0128,-0.0105,-0.0088,-0.006,-0.0018,0.0033,0.0012,0.0015,0.0048,0.0148,0.0129,0.0137,0.0067,0.0068,0.0069,0.0164,0,-0.0249,-0.0285,-0.0279,-0.0302,-0.0317,-0.0291,-0.0283,-0.026,-0.0232,-0.0206,-0.0162,-0.0138,-0.0116,-0.0104,-0.0058,0.0009,0.0055,0.0005,0.0142,0.0145,0.0127,0.0146,0.0074,0.0171,0.0173,0.0174,0.0176,0,-0.0276,-0.0298,-0.0333,-0.0346,-0.0349,-0.0354,-0.0337,-0.0326,-0.0277,-0.0253,-0.0213,-0.0174,-0.0121,-0.0098,0.0022,-0.0008,0.0064,0.0119,0.0125,0.0123,0.0142,0.017,0.0192,0.0191,0.0189,0.0188,0.0187,0,-0.0302,-0.0332,-0.0364,-0.0369,-0.0378,-0.0383,-0.038,-0.0344,-0.0333,-0.0281,-0.0264,-0.019,-0.0154,-0.0053,0.005,0.0046,0.019,0.0202,0.0254,0.0254,0.0257,0.0253,0.0298,0.0298,0.0297,0.0297,0.0297,0,-0.0329,-0.0355,-0.0384,-0.0403,-0.0436,-0.0421,-0.0434,-0.0414,-0.0379,-0.0363,-0.0294,-0.026,-0.0137,-0.0044,0.0054,0.0176,0.02,0.0253,0.028,0.024,0.0233,0.0263,0.0258,0.0301,0.03,0.0299,0.0299,0,-0.0351,-0.0371,-0.0414,-0.0442,-0.0454,-0.0475,-0.0484,-0.0485,-0.0445,-0.0419,-0.0404,-0.0304,-0.0183,-0.0058,0.0107,0.0173,0.0295,0.0336,0.0275,0.0296,0.0322,0.0314,0.0402,0.0402,0.0402,0.0402,0.0402,0,-0.0366,-0.0392,-0.0449,-0.0483,-0.0501,-0.053,-0.0548,-0.0524,-0.0516,-0.0442,-0.0426,-0.0314,-0.0234,-0.0014,0.0112,0.0297,0.0321,0.0376,0.0352,0.0317,0.0335,0.0326,0.0318,0.0403,0.0403,0.0403,0.0403,0,-0.0391,-0.0414,-0.045,-0.0521,-0.056,-0.0596,-0.0612,-0.061,-0.0565,-0.0534,-0.043,-0.0313,-0.0176,-0.0015,0.0126,0.0258,0.0333,0.0379,0.0379,0.0357,0.0319,0.0334,0.0326,0.0403,0.0403,0.0403,0.0403,0,-0.0404,-0.0437,-0.0488,-0.0545,-0.0604,-0.0638,-0.0647,-0.0618,-0.0599,-0.0505,-0.0472,-0.0313,-0.0218,-0.0034,0.0099,0.022,0.0247,0.0277,0.0283,0.0284,0.0213,0.0145,0.0203,0,0,0,0,0,-0.0408,-0.0445,-0.0507,-0.057,-0.063,-0.0656,-0.0676,-0.0668,-0.0625,-0.0556,-0.0507,-0.0372,-0.0164,-0.0071,0.0048,0.0085,0.0251,0.0226,0.0284,0.0406,0.0406,0.034,0,0,0,0,0,0,-0.0414,-0.0469,-0.0503,-0.0576,-0.0618,-0.0672,-0.0684,-0.0659,-0.0607,-0.0548,-0.0434,-0.0355,-0.0154,-0.0228,0.0049,0.0086,0.0135,0.033,0.0332,0.0407,0.0406,0.0406,0.0338,0,0,0,0,0]}]]